Location: Cuzcurrita-R�o Tir�n
(42.5415°N, 2.9642°W)
Time: 03:47:22
(UTC+00:00)

Cosmos 2297 Rocket - Pass Details

Date: 27 February 2020
Orbit: 838 x 844 km, 71.0° (Epoch: 09 April)

Event Time Altitude Azimuth Distance (km) Brightness Sun altitude
Rises 19:38:10 0° 342° (NNW) 3,413 5.7 -19.1°
Reaches altitude 10° 19:40:51 10° 351° (N) 2,474 4.8 -19.6°
Maximum altitude 19:46:00 34° 56° (ENE) 1,352 2.9 -20.6°
Enters shadow 19:46:19 34° 63° (ENE) 1,357 2.8 -20.6°
